User: anonymous   Login
Location: Krasnoyarskiy Pitomnik
(51.1333°N, 71.6167°E)
Time: 09:09:04
(UTC+00:00)
Language:

Cosmos 1833 Rocket - Orbit

View from above orbital plane
View from above orbital plane
View from above satellite
View from above satellite

Ground track
Ground track

The orbit data is extracted from the following two-line orbital elements,

1 17590U 87027B   22024.90425924  .00000073  00000-0  60193-4 0  9994
2 17590  71.0009 206.3638 0007314 260.5740  99.4557 14.16809031802224
Epoch (UTC): 24 January 2022 21:42:07
Eccentricity: 0.0007314
inclination: 71.0009°
perigee height: 831 km
apogee height: 841 km
right ascension of ascending node: 206.3638°
argument of perigee: 260.5740°
revolutions per day: 14.16809031
mean anomaly at epoch: 99.4557°
orbit number at epoch: 80222

The dashed part of the orbit path shows where the satellite is in the earth's shadow,  

DLR